Regional Weather Roundup
Issued by NWS

Home | Current Version | Previous Version | Text Only | Print | Product List | Glossary On
Versions: 1 2 3 4 5 6 7 8 9 10 11 12 13 14 15 16 17 18 19 20 21 22 23 24 25 26 27 28 29 30 31 32 33 34 35 36 37 38 39 40 41 42 43 44 45 46 47 48 49 50
000
ASUS43 KOAX 081910
RWRNE

WEATHER ROUNDUP FOR NEBRASKA
NATIONAL WEATHER SERVICE OMAHA NE
100 PM CST MON FEB 08 2016

NOTES: SATELLITE DATA IS BEING USED TO AUGMENT CLOUD COVER ABOVE
       12000 FEET.
       "FAIR" INDICATES FEW OR NO CLOUDS BELOW 12,000 FEET WITH NO
       SIGNIFICANT WEATHER AND/OR OBSTRUCTIONS TO VISIBILITY.

  * THESE STATIONS DO NOT REPORT WEATHER SUCH AS RAIN...SNOW OR FOG.

NEZ001>004-019>022-054>056-082000-
NEBRASKA PANHANDLE

CITY           SKY/WX    TMP DP  RH WIND       PRES   REMARKS
SCOTTSBLUFF    CLOUDY    38  22  52 NW13      30.36F WCI  30
ALLIANCE       CLOUDY    33  16  49 NW16      30.32F WCI  23
CHADRON        CLOUDY    38  13  35 NW23G30   30.35F WCI  27
KIMBALL        CLOUDY    37  23  57 NW21G26   30.34F WCI  26
SIDNEY         MOSUNNY   37  22  54 NW14      30.34F WCI  28
$$

NEZ057>060-069>072-079>082-082000-
SOUTHWEST NEBRASKA

CITY           SKY/WX    TMP DP  RH WIND       PRES   REMARKS
NORTH PLATTE   CLOUDY    35  15  44 NW22G38   30.29F WCI  23
IMPERIAL       CLOUDY    35  16  45 NW17      30.34F WCI  25
LEXINGTON      SUNNY     34  17  50 NW25G36   30.27F WCI  21
MCCOOK         CLOUDY    35  17  47 NW25G32   30.32F WCI  23
OGALLALA       CLOUDY    36  15  43 NW23G30   30.33F WCI  24
$$

NEZ005>010-023>029-035>040-094-082000-
NORTH CENTRAL NEBRASKA

CITY           SKY/WX    TMP DP  RH WIND       PRES   REMARKS
VALENTINE      MOSUNNY   31  16  54 NW17G31   30.28F WCI  19
AINSWORTH      SUNNY     33  14  45 NW29G36   30.24F WCI  20
BROKEN BOW     SUNNY     34  14  43 NW23G43   30.22F WCI  22
O`NEILL        SUNNY     33  19  57 NW31G40   30.19F WCI  19
ORD            SUNNY     35  17  47 NW31G44   30.18F WCI  22
THEDFORD       MOSUNNY   36  14  40 NW26G38   30.26F WCI  24
$$

NEZ041-046>049-061>064-073>077-083>087-082000-
SOUTH CENTRAL NEBRASKA

CITY           SKY/WX    TMP DP  RH WIND       PRES   REMARKS
GRAND ISLAND   SUNNY     33  18  53 NW28G38   30.18F WCI  20
AURORA         SUNNY     32  18  56 N36G44    30.18F WCI  17
HASTINGS       SUNNY     34  19  54 NW29      30.19F WCI  20
HEBRON         SUNNY     33  20  58 N23G33    30.18F WCI  21
HOLDREGE       SUNNY     33  16  49 NW23G38   30.24F WCI  21
YORK           SUNNY     32  19  59 NW32G38   30.15F WCI  17
$$

NEZ011>018-030>034-042>045-082000-
NORTHEAST NEBRASKA

CITY           SKY/WX    TMP DP  RH WIND       PRES   REMARKS
NORFOLK        SUNNY     31  18  58 NW29G38   30.11F WCI  16
ALBION         SUNNY     32  17  54 NW30G40   30.14F WCI  18
BLAIR          CLOUDY    28  19  69 NW31G39   30.08S WCI  11
COLUMBUS *     SUNNY     30  14  51 NW28G36   30.13F WCI  16
FREMONT        PTSUNNY   29  18  64 NW28G36   30.13F WCI  14
TEKAMAH        CLOUDY    31  18  58 NW30G40   30.11F WCI  16
WAYNE          PTSUNNY   29  19  64 NW31G41   30.11F WCI  13
$$

NEZ050>053-065>068-078-088>093-082000-
SOUTHEAST NEBRASKA

CITY           SKY/WX    TMP DP  RH WIND       PRES   REMARKS
LINCOLN        MOSUNNY   32  19  58 NW22G37   30.14F WCI  19
OMAHA EPPLEY   CLOUDY    27  17  66 N23G36    30.09F WCI  12
BEATRICE       MOSUNNY   32  19  59 N29G41    30.15F WCI  18
FALLS CITY     CLOUDY    33  16  49 NW33G52   30.08F WCI  18
NEBRASKA CITY  CLOUDY    30  18  62 N30G40    30.09F WCI  14
PLATTSMOUTH    CLOUDY    28  17  65 NW28G38   30.08F WCI  12
$$

NEZ044-045-051>053-067-082000-
OMAHA AREA

CITY           SKY/WX    TMP DP  RH WIND       PRES   REMARKS
OMAHA EPPLEY   CLOUDY    27  17  66 N23G36    30.09F WCI  12
BLAIR          CLOUDY    28  19  69 NW31G39   30.08S WCI  11
FREMONT        PTSUNNY   29  18  64 NW28G36   30.13F WCI  14
MILLARD        CLOUDY    29  18  62 NW29G41   30.10F WCI  14
OFFUTT AFB     MIX PCPN  28  16  59 NW24G41   30.08F WCI  14
PLATTSMOUTH    CLOUDY    28  17  65 NW28G38   30.08F WCI  12
WAHOO          MOCLDY    29  19  65 N26G39    30.12F WCI  15
$$



USA.gov is the U.S. government's official web portal to all federal, state and local government web resources and services.